Weather in Dmitriyevskoye

Russia / Tula Oblast     54°40′15″N   37°37′26″E
temp.,
°C
wind,
m/s
gust,
m/s
humid.,
%
clouds,
%
prec.,
mm/h
press.,
hPa
HPBL,
m
17 may, mon
mon1700:00+14ese3383100 0.0 101333
03:00+13e33885 0.0 101435
06:00+14e3108957 0.0 1013206
09:00+19e6118212 0.3 1012459
12:00+24ese710685 0.0 1011856
15:00+26ese61064100 0.0 10101410
18:00+23se61369100 0.0 1009629
21:00+19se6167551 0.0 1009450
18 may, tue
tue1800:00+17ese6177921 0.0 1009400
03:00+15ese414780 0.0 1009282
06:00+15ese513792 0.0 1009273
09:00+20se6126626 0.0 1009432
12:00+24se711575 0.0 1008724
15:00+25ese7116010 0.0 1007991
18:00+22ese7156683 0.0 1006723
21:00+20se6157478 0.0 1007515
19 may, wed
wed1900:00+16ese3388100 0.0 100744
03:00+15se379277 0.0 1007143
06:00+16se4118795 0.0 1008380
09:00+19se467177 0.0 1008490
12:00+22sse5863100 0.2 10081326
15:00+21se467283 1.1 1007992
18:00+21sse47786 2.0 1007429
21:00+16sse339030 4.2 100740
20 may, thu
thu2000:00+15ese229085 0.6 100612
03:00+15sse1197100 4.8 100545
06:00+15se4109698 0.0 1005336
09:00+18se578145 0.1 1005806
12:00+14sse599295 1.5 1005490
15:00+18s796995 1.9 10041449
18:00+16s478094 0.8 1004542
21:00+13se35900 1.1 100488
21 may, fri
fri2100:00+11s6129455 0.1 1004601
03:00+9s7129091 0.2 1005762
06:00+9s7138889 0.0 1005813
09:00+10s81383100 0.1 10061261
12:00+11ssw91579100 0.3 10061361
15:00+10sw91385100 0.6 10081247
18:00+10sw81285100 0.2 10091165
21:00+8sw81394100 0.9 1011828